Home   Weather   Rhodes   Past weeks

Flag for Greece Past Weather in Rhodes, Rhodes, Greece — Yesterday and Last 2 Weeks

64 °F

Passing clouds.

Feels Like: 64 °F
Forecast: 67 / 72 °F
Wind: No wind

Location: Rhodes Airport

Current Time: Oct 28, 2016 at 5:54:45 AM

Latest Report: Oct 28, 2016 at 5:20 AM

Visibility: N/A

Pressure: 29.98 "Hg

Humidity: 83%

Dew Point: 59 °F

Location of RhodesLocation

Past Weather in Rhodes — Graph


Rhodes Temperature Yesterday

Maximum temperature yesterday: 77 °F (at 1:50 PM)
Minimum temperature yesterday: 63 °F (at 4:50 AM)
Average temperature yesterday: 68 °F

High & Low Weather Summary for the Past Weeks

High79 °F (Oct 13, 1:50 PM)94% (Oct 23, 8:20 AM)30.07 "Hg (Oct 23, 8:20 AM)
Low63 °F (Oct 20, 7:50 AM)42% (Oct 15, 12:50 PM)29.86 "Hg (Oct 26, 3:50 PM)
Average71 °F67%29.98 "Hg
* Reported Oct 13 4:20 AM — Oct 28 4:20 AM, Rhodes, Weather by CustomWeather, © 2016

Note: Actual official high and low records may vary slightly from our data, if they occured in-between our weather recording intervals... More about our weather records


Rhodes Weather History for the Previous 24 Hours

Scroll right to see more
Time TempWeatherWind HumidityBarometerVisibility
4:20 AM
Fri, Oct 28
64 °FPassing clouds.No wind83%29.98 "HgN/A
3:50 AM64 °FPassing clouds.No wind83%29.98 "HgN/A
3:20 AM64 °FPassing clouds.No wind83%30.01 "HgN/A
2:50 AM64 °FPassing clouds.No wind83%30.01 "HgN/A
2:20 AM64 °FPassing clouds.No wind88%30.01 "HgN/A
1:50 AM64 °FPassing clouds.No wind88%30.01 "HgN/A
1:20 AM66 °FPassing clouds.No wind83%30.01 "HgN/A
12:50 AM66 °FPassing clouds.No wind83%30.01 "HgN/A
12:20 AM66 °FPassing clouds.No wind83%30.01 "HgN/A
11:50 PM
Thu, Oct 27
66 °FPassing clouds.No wind83%30.01 "HgN/A
11:20 PM66 °FPassing clouds.No wind83%29.98 "HgN/A
10:50 PM66 °FPassing clouds.No wind83%29.98 "HgN/A
10:20 PM68 °FPassing clouds.3 mph78%29.98 "HgN/A
9:50 PM68 °FPassing clouds.3 mph78%30.01 "HgN/A
9:20 PM68 °FPassing clouds.3 mph78%29.98 "HgN/A
8:50 PM68 °FPassing clouds.3 mph78%29.98 "HgN/A
8:20 PM70 °FPassing clouds.3 mph69%29.98 "HgN/A
7:50 PM70 °FPassing clouds.2 mph69%29.98 "HgN/A
7:20 PM70 °FPassing clouds.3 mph69%29.98 "HgN/A
6:50 PM70 °FPassing clouds.3 mph69%29.98 "HgN/A
6:20 PM72 °FPassing clouds.5 mph73%29.98 "HgN/A
5:50 PM72 °FPartly sunny.6 mph73%29.98 "HgN/A
5:20 PM73 °FPartly sunny.8 mph69%29.98 "HgN/A
4:50 PM73 °FPartly sunny.13 mph69%29.98 "HgN/A
4:20 PM77 °FPassing clouds.2 mph57%29.98 "HgN/A
3:50 PM77 °FPassing clouds.7 mph57%29.98 "HgN/A
3:20 PM75 °FPassing clouds.7 mph61%29.98 "HgN/A
2:50 PM75 °FPassing clouds.5 mph61%29.98 "HgN/A
2:20 PM77 °FPassing clouds.5 mph57%29.98 "HgN/A
1:50 PM77 °FScattered clouds.10 mph57%29.98 "HgN/A
1:20 PM73 °FPassing clouds.12 mph61%29.98 "HgN/A
12:50 PM73 °FPassing clouds.12 mph61%29.98 "HgN/A
12:20 PM73 °FPassing clouds.7 mph61%29.98 "HgN/A
11:50 AM73 °FScattered clouds.7 mph61%29.98 "HgN/A
11:20 AM68 °FPassing clouds.5 mph78%29.98 "HgN/A
10:50 AM68 °FPassing clouds.5 mph78%29.98 "HgN/A
10:20 AM64 °FPassing clouds.No wind83%29.98 "HgN/A
9:50 AM66 °FPassing clouds.No wind78%29.98 "HgN/A
9:20 AM64 °FPassing clouds.No wind83%29.95 "HgN/A
8:50 AM64 °FPassing clouds.No wind83%29.95 "HgN/A
8:20 AM63 °FPassing clouds.No wind83%29.95 "HgN/A
7:50 AM63 °FPassing clouds.No wind83%29.95 "HgN/A
7:20 AM63 °FPassing clouds.No wind83%29.95 "HgN/A
6:50 AM63 °FPassing clouds.2 mph83%29.95 "HgN/A
6:20 AM63 °FPassing clouds.3 mph83%29.95 "HgN/A
5:50 AM63 °FPassing clouds.3 mph83%29.95 "HgN/A
5:20 AM63 °FPassing clouds.3 mph83%29.95 "HgN/A
Weather by CustomWeather, © 2016

See weather overviewHow to use our weather pages